Regional Weather Roundup
Issued by NWS Midland/Odessa, TX

Home | Current Version | Previous Version | Text Only | Print | Product List | Glossary On
Versions: 1 2 3 4 5 6 7 8 9 10 11 12 13 14 15 16 17 18 19 20 21 22 23 24 25 26 27 28 29 30 31 32 33 34 35 36 37 38 39 40 41 42 43 44 45 46 47 48 49 50
000
ASUS44 KMAF 152010
RWRMAF
MIDLAND AREA WEATHER ROUNDUP
NATIONAL WEATHER SERVICE MIDLAND TX
200 PM CST FRI DEC 15 2017

...IN SOUTHWEST TEXAS AND SOUTHEAST NEW MEXICO...

CITY           SKY/WX    TMP DP  RH WIND       PRES   REMARKS
ALPINE         SUNNY     48  23  37 NE8       30.29F
ANDREWS        FAIR      51  24  35 SW10G18   30.24F
ARTESIA        SUNNY     50  25  37 S15       30.23F
BIG SPRING     SUNNY     51  22  32 SW8       30.27F
CARLSBAD       SUNNY     52  27  38 S15       30.22F
DRYDEN           N/A     55  28  35 VRB5      30.24F
FORT STOCKTON  SUNNY     49  29  46 CALM      30.26F
GUAD PASS      SUNNY     46  26  45 SW20G26   30.24F WCI  38
HOBBS          SUNNY     50  23  34 SW12G20   30.22F
LAMESA         FAIR      52  25  35 SW13G22   30.24F
MARFA          NOT AVBL
MIDLAND AIRPK  SUNNY     53  25  33 SW6       30.26F
MIDLAND INTL   SUNNY     51  24  34 VRB6      30.25F
ODESSA         SUNNY     51  24  34 W9        30.25F
PECOS          SUNNY     51  29  42 S3        30.27F
PRESIDIO       FAIR      54  27  34 N9G18     30.27F
SEMINOLE       SUNNY     51  24  34 W9G18     30.24F
SNYDER         SUNNY     50  23  34 SW8       30.25F
WINK           SUNNY     51  26  37 W8        30.25F
$$
...OTHER STATIONS IN TEXAS...

CITY           SKY/WX    TMP DP  RH WIND       PRES   REMARKS
ABILENE        SUNNY     51  23  33 NW6       30.24F
AMARILLO       SUNNY     53  23  31 W17G28    30.13F
AUSTIN         PTSUNNY   58  31  35 N10       30.26F
BROWNSVILLE    LGT RAIN  51  45  79 NW16G24   30.25F
CORPUS CHRISTI LGT RAIN  50  42  74 N6        30.27F
DALLAS FTW     MOSUNNY   56  23  27 NW12G20   30.24F
DEL RIO        SUNNY     56  34  43 VRB5      30.27F
EL PASO        SUNNY     51  25  36 VRB3      30.26F
HOUSTON INT    CLOUDY    54  34  46 VRB3      30.26F
LUBBOCK        SUNNY     53  22  29 W15       30.19F
SAN ANGELO     SUNNY     53  24  32 SW5       30.26F
SAN ANTONIO    PTSUNNY   58  30  34 N9        30.28F
WACO           SUNNY     57  25  29 VRB6G16   30.25F
WICHITA FALLS  SUNNY     50  27  40 SW14G24   30.09F
$$
...OTHER LOCATIONS IN NEW MEXICO...

CITY           SKY/WX    TMP DP  RH WIND       PRES   REMARKS
ALAMOGORDO     SUNNY     46  18  31 SW5       30.28F
ALBUQUERQUE    SUNNY     43  15  32 SW3       30.24F
CANNON AFB     SUNNY     50  23  34 SW16      30.17F
CLOVIS         SUNNY     50  22  33 SW22      30.16F
HOLLOMAN AFB   SUNNY     50  19  28 SW3       30.29F
ROSWELL        SUNNY     53  23  31 S13       30.20F
RUIDOSO        SUNNY     45   9  23 NW12      30.22F WCI  39
SANTA FE       SUNNY     44  13  28 N15       30.20F WCI  37
TRUTH OR CONSE SUNNY     49  18  29 CALM      30.25F
TUCUMCARI      SUNNY     56  18  22 SW12      30.09F
$$



USA.gov is the U.S. government's official web portal to all federal, state and local government web resources and services.